Regional Weather Roundup
Issued by NWS

Home | Current Version | Previous Version | Graphics & Text | Print | Product List | Glossary On
Versions: 1 2 3 4 5 6 7 8 9 10 11 12 13 14 15 16 17 18 19 20 21 22 23 24 25 26 27 28 29 30 31 32 33 34 35 36 37 38 39 40 41 42 43 44 45 46 47 48 49 50
000
ASUS43 KMPX 171310
RWRMN
WEATHER ROUNDUP FOR MINNESOTA
NATIONAL WEATHER SERVICE TWIN CITIES/CHANHASSEN MN
800 AM CDT WED SEP 17 2014


NOTE: "FAIR" INDICATES FEW OR NO CLOUDS BELOW 12,000 FEET WITH NO
SIGNIFICANT WEATHER AND/OR OBSTRUCTIONS TO VISIBILITY. N/A MEANS
CURRENT SKY AND/OR WEATHER CONDITIONS ARE NOT AVAILABLE.

MNZ060>063-068>070-171400-
   Twin Cities Metro

CITY           SKY/WX    TMP DP  RH WIND       PRES   REMARKS
TWIN CITIES    PTSUNNY   56  49  77 S6        29.96R
ST PAUL        MOSUNNY   54  50  86 SE6       29.97R
CRYSTAL        CLOUDY    58  49  72 S5        29.94R
BLAINE         PTSUNNY   57  52  82 S5        29.95R
LAKEVILLE      PTSUNNY   52  48  87 CALM      29.96S
EDEN PRAIRIE   PTSUNNY   55  50  83 S5        29.94S
SOUTH ST PAUL  PTSUNNY   56  49  80 CALM      29.96R
LAKE ELMO      CLOUDY    54  50  87 CALM      29.97S
$$
MNZ001>005-007-008-013>017-022>024-027-028-171400-
   Northwest Minnesota

CITY           SKY/WX    TMP DP  RH WIND       PRES   REMARKS
BEMIDJI        PTCLDY    43  41  92 CALM      29.94F
HALLOCK        CLEAR     46  45  93 N8        29.96R
ROSEAU         MOCLDY    50  45  81 NE9       29.96R
WARROAD        CLOUDY    52  46  82 N10       29.97R
THIEF RVR FALL CLEAR     43  41  93 SE5       29.93S
CROOKSTON      CLEAR     43  43 100 SE3       29.94S
FOSSTON        CLEAR     43  41  93 CALM      29.96R
DETROIT LAKES  CLEAR     48  46  93 CALM      29.93S
MOORHEAD       CLEAR     46  46 100 CALM      29.93R
PARK RAPIDS    CLEAR     41  39  93 CALM      29.93S
MAHNOMEN       FAIR      44  43  97 NE3       29.94R
$$
MNZ006-009>011-018-025>026-171400-
   North Central Minnesota

CITY           SKY/WX    TMP DP  RH WIND       PRES   REMARKS
BAUDETTE       CLOUDY    49  46  90 NE12      29.96R
FLAG ISLAND    CLOUDY    45  41  87 NE8       29.99R
INTL FALLS     LGT RAIN  49  46  90 NE8       29.94R
WASKISH        MOCLDY    45  43  93 CALM      29.92F
BIG FORK       MOSUNNY   39  37  93 SW3       29.94S
LONGVILLE      CLEAR     39  39 100 CALM      29.93R
GRAND RAPIDS   MOSUNNY   45  41  87 N6        29.94R
CRANE LAKE     CLOUDY    48  46  93 CALM      29.95R
ORR            PTSUNNY   48  43  81 CALM      29.90R
COOK           MOSUNNY   46  43  87 CALM      29.92F
WALKER         FAIR      46  45  93 CALM      29.93R
$$
MNZ012-019>021-037-171400-
   Northeast Minnesota

CITY           SKY/WX    TMP DP  RH WIND       PRES   REMARKS
DULUTH         MOSUNNY   52  43  71 W9        29.93R
ELY            PTSUNNY   48  45  87 CALM      29.92S
HIBBING        SUNNY     41  39  93 CALM      29.94R
EVELETH        SUNNY     43  41  93 S3        29.95F
DULUTH HARBOR  MOSUNNY   48  45  87 S3        29.94S
TWO HARBORS    SUNNY     43  37  81 CALM      29.91S
SILVER BAY     SUNNY     45  45 100 CALM      29.92R
GRAND MARAIS     N/A     48  44  86 E10       29.95R
G MARAIS ARPRT CLOUDY    43  39  87 S3        29.93S
$$
MNZ029>031-032-039>041-046>048-054>057-064-171400-
   West Central Minnesota

CITY           SKY/WX    TMP DP  RH WIND       PRES   REMARKS
FERGUS FALLS   CLEAR     50  46  87 S3        29.93R
WHEATON        CLEAR     43  43 100 SE3       29.94R FOG
MORRIS         CLEAR     48  46  93 SE3       29.92R
ALEXANDRIA     CLEAR     51  48  89 CALM      29.94R
ELBOW LAKE     FAIR      50  48  91 SE3       29.92S
WADENA         CLEAR     43  41  93 CALM      29.93R
GLENWOOD       CLEAR     50  48  93 CALM      29.94R
APPLETON       CLEAR     48  45  87 CALM      29.92R
BENSON         CLEAR     48  48 100 CALM      29.93R
ORTONVILLE     CLEAR     48  46  93 CALM      29.92R
MADISON        CLEAR     50  48  93 CALM      29.93R
WILLMAR        FAIR      54  48  82 SE3       29.94S
$$
MNZ033>034-036-042>043-049>051-058-059-171400-
   Central Minnesota

CITY           SKY/WX    TMP DP  RH WIND       PRES   REMARKS
ST CLOUD       SUNNY     49  46  90 CALM      29.94R
SAUK CENTRE    FAIR      45  44  98 CALM      29.94R
PAYNESVILLE    CLEAR     47  47 100 CALM      29.94S
AITKIN         MOSUNNY   45  39  81 CALM      29.92S
PINE RIVER     CLEAR     41  41 100 CALM      29.97R
BRAINERD       PTCLDY    43  43 100 CALM      29.94S
STAPLES        CLEAR     43  43 100 CALM      29.94R
LONG PRAIRIE   FAIR      45  45 100 CALM      29.94R FOG
LITTLE FALLS   PTCLDY    43  41  93 CALM      29.94S FOG
LITCHFIELD     CLEAR     55  54  94 CALM      29.94S
BUFFALO        SUNNY     54  48  82 CALM      29.95S
MAPLE LAKE     SUNNY     53  51  93 CALM      29.95S
$$
MNZ037-044-045-052-053-171400-
   East Central Minnesota

CITY           SKY/WX    TMP DP  RH WIND       PRES   REMARKS
PRINCETON      MOSUNNY   46  45  93 CALM      29.95R
MORA           MOSUNNY   41  41 100 CALM      29.97R
CAMBRIDGE      SUNNY     52  43  71 CALM      29.93S
RUSH CITY      SUNNY     45  44  96 CALM      29.95S
MOOSE LAKE     MOSUNNY   41  39  93 CALM      29.92S FOG
HINCKLEY       FAIR      43  43 100 CALM      29.95S
CLOQUET        FAIR      50  43  76 W5        29.93S
MCGREGOR       SUNNY     43  43 100 CALM      29.94R
$$
MNZ071>073-080-081-089-090-097-098-171400-
   Southwest Minnesota

CITY           SKY/WX    TMP DP  RH WIND       PRES   REMARKS
MONTEVIDEO     CLEAR     52  50  93 CALM      29.94R
GRANITE FALLS  CLEAR     49  49  97 CALM      29.94S
CANBY          CLEAR     54  50  87 N3        29.93R
MARSHALL       CLEAR     52  46  82 CALM      29.92R
REDWOOD FALLS  CLEAR     52  50  93 SE6       29.93R
OLIVIA         CLEAR     54  50  87 SE3       29.93R
PIPESTONE      CLEAR     50  46  87 CALM      29.93S
WINDOM           N/A     52  48  87 CALM      29.94S
WORTHINGTON    PTCLDY    52  48  87 S3        29.95R
JACKSON        CLEAR     52  46  82 S6        29.95S
TRACY          CLEAR     54  50  85 SW8       29.92S
SLAYTON        CLEAR     47  47  99 CALM      29.94S
$$
MNZ065>067-074>077-082>085-091>093-171400-
   South Central Minnesota

CITY           SKY/WX    TMP DP  RH WIND       PRES   REMARKS
MANKATO        SUNNY     52  45  76 S6        29.96R
NEW ULM        CLEAR     52  52 100 SE3       29.94S
ST JAMES       PTCLDY    54  50  87 S5        29.95S
FAIRMONT       MOSUNNY   52  45  76 S7        29.95S
GLENCOE        SUNNY     55  48  79 CALM      29.94S
FARIBAULT      CLOUDY    55  46  71 S3        29.97S
OWATONNA       PTSUNNY   54  46  76 S5        29.97S
WASECA         SUNNY     50  45  81 S5        29.98S
ALBERT LEA     MOSUNNY   52  50  93 S3        29.97F
$$
MNZ078>079-086>088-094>096-171400-
   Southeast Minnesota

CITY           SKY/WX    TMP DP  RH WIND       PRES   REMARKS
ROCHESTER      CLOUDY    50  47  89 S6        29.99S
RED WING       PTSUNNY   55  50  82 CALM      29.97R
STANTON        PTSUNNY   54  48  80 S5        29.95S
DODGE CENTER   PTSUNNY   52  48  87 S6        29.98S
WINONA         CLOUDY    52  50  93 SE5       29.99S
AUSTIN         CLOUDY    48  46  93 CALM      29.98S
PRESTON        CLOUDY    49  49  99 S5        30.00S
$$
ABBREVIATIONS USED IN REMARKS
   TC - TEMPERATURES IN CELSIUS
  WCI - WIND CHILL INDEX
   HX - HEAT INDEX
  VSB - VISIBILITY
$$



USA.gov is the U.S. government's official web portal to all federal, state and local government web resources and services.